This demonstration page uses our WeatherBlox Daily Observations layout. Learn more.

Left ArrowRight Arrow

34.16533, -84.80231

Hourly Observations for March 20, 2017

Temp ( °F °C ) Dew Point ( °F °C ) Humidity (%) Winds ( mph kmh ) Pressure ( in mb ) Visibility ( mi km ) Precip ( " mm )
12:53 am 00:53 Clear 40 4.4 34 1.1 79 79 Calm 30.24 1024 10 16 0.00 0.00
1:53 am 01:53 Clear 38 3.3 33 0.6 83 83 Calm 30.24 1024 10 16 0.00 0.00
2:53 am 02:53 Clear 35 1.7 32 0 89 89 Calm 30.25 1024 10 16 0.00 0.00
3:53 am 03:53 Clear 34 1.1 32 0 92 92 Calm 30.23 1024 10 16 0.00 0.00
4:53 am 04:53 Clear 35 1.7 32 0 89 89 Calm 30.22 1023 10 16 0.00 0.00
5:53 am 05:53 Clear 35 1.7 32 0 89 89 Calm 30.22 1023 10 16 0.00 0.00
6:53 am 06:53 Clear 34 1.1 32 0 92 92 Calm 30.22 1024 10 16 0.00 0.00
7:53 am 07:53 Mostly Sunny 35 1.7 32 0 89 89 Calm 30.23 1024 10 16 0.00 0.00
8:53 am 08:53 Sunny 39 3.9 35 1.7 86 86 Calm 30.25 1024 10 16 0.00 0.00
9:53 am 09:53 Mostly Sunny 47 8.3 38 3.3 71 71 VRB 5 7 30.24 1024 10 16 0.00 0.00
10:53 am 10:53 Cloudy 52 11.1 35 1.7 53 53 NE 3 6 30.24 1024 10 16 0.00 0.00
11:53 am 11:53 Partly Cloudy 58 14.4 36 2.2 44 44 VRB 5 7 30.24 1024 10 16 0.00 0.00
12:53 pm 12:53 Mostly Cloudy 62 16.7 36 2.2 38 38 NNW 5 7 30.22 1023 10 16 0.00 0.00
1:53 pm 13:53 Cloudy 65 18.3 36 2.2 34 34 Calm 30.19 1022 10 16 0.00 0.00
2:53 pm 14:53 Partly Cloudy 70 21.1 36 2.2 29 29 VRB 3 6 30.14 1021 10 16 0.00 0.00
3:53 pm 15:53 Sunny 73 22.8 40 4.4 30 30 Calm 30.11 1020 10 16 0.00 0.00
4:53 pm 16:53 Mostly Sunny 77 25 44 6.7 31 31 NNW 5 7 30.08 1019 10 16 0.00 0.00
5:53 pm 17:53 Mostly Cloudy 75 23.9 45 7.2 34 34 Calm 30.05 1018 10 16 0.00 0.00
6:53 pm 18:53 Sunny 74 23.3 51 10.6 45 45 Calm 30.03 1017 10 16 0.00 0.00
7:53 pm 19:53 Clear 64 17.8 53 11.7 68 68 Calm 30.04 1017 10 16 0.00 0.00
8:53 pm 20:53 Clear 64 17.8 51 10.6 63 63 Calm 30.05 1018 10 16 0.00 0.00
9:53 pm 21:53 Clear 61 16.1 50 10 67 67 S 5 7 30.06 1018 10 16 0.00 0.00
10:53 pm 22:53 Partly Cloudy 60 15.6 50 10 70 70 Calm 30.07 1018 10 16 0.00 0.00
11:53 pm 23:53 Mostly Clear 57 13.9 50 10 78 78 Calm 30.07 1018 10 16 0.00 0.00

Powered by AerisWeather